Regional Weather Roundup
Issued by NWS

Home | Current Version | Previous Version | Text Only | Print | Product List | Glossary Off
Versions: 1 2 3 4 5 6 7 8 9 10 11 12 13 14 15 16 17 18 19 20 21 22 23 24 25 26 27 28 29 30 31 32 33 34 35 36 37 38 39 40 41 42 43 44 45 46 47 48 49 50

000
ASUS43 KOAX 290710
RWRNE

WEATHER ROUNDUP FOR NEBRASKA
NATIONAL WEATHER SERVICE OMAHA NE
200 AM CDT SAT APR 29 2017

NOTES: SATELLITE DATA IS BEING USED TO AUGMENT CLOUD COVER ABOVE
       12000 FEET.
       "FAIR" INDICATES FEW OR NO CLOUDS BELOW 12,000 FEET WITH NO
       SIGNIFICANT WEATHER AND/OR OBSTRUCTIONS TO VISIBILITY.

  * THESE STATIONS DO NOT REPORT WEATHER SUCH AS RAIN...SNOW OR FOG.

NEZ001>004-019>022-054>056-290800-
NEBRASKA PANHANDLE

CITY           SKY/WX    TMP DP  RH WIND       PRES   REMARKS
SCOTTSBLUFF    CLOUDY    34  31  88 NW5       30.15S WCI  30
ALLIANCE       CLOUDY    33  29  85 N8        30.14R WCI  26
CHADRON        PTCLDY    32  28  85 S3        30.19R
KIMBALL        FLURRIES  32  31  96 N5        30.13F WCI  27
SIDNEY         CLOUDY    32  31  96 N8        30.12S WCI  25
$$

NEZ057>060-069>072-079>082-290800-
SOUTHWEST NEBRASKA

CITY           SKY/WX    TMP DP  RH WIND       PRES   REMARKS
NORTH PLATTE   CLOUDY    39  32  76 NE13      30.08F WCI  31
IMPERIAL       CLOUDY    37  33  85 N8        30.09F WCI  31
LEXINGTON      CLOUDY    39  33  80 N12       30.06F WCI  31
MCCOOK         CLOUDY    37  34  89 NE16      30.06F WCI  28
OGALLALA       CLOUDY    39  33  80 N10       30.10F WCI  32
$$

NEZ005>010-023>029-035>040-094-290800-
NORTH CENTRAL NEBRASKA

CITY           SKY/WX    TMP DP  RH WIND       PRES   REMARKS
VALENTINE      CLOUDY    42  21  43 NE8       30.18R
AINSWORTH      CLOUDY    40  29  65 NE9       30.17R WCI  34
BROKEN BOW     CLOUDY    40  32  73 N10       30.09S WCI  33
O`NEILL        CLOUDY    41  29  62 NE8       30.14F
ORD            CLOUDY    41  32  70 N9        30.12R
THEDFORD       CLOUDY    40  32  71 NE9       30.14S WCI  35
$$

NEZ041-046>049-061>064-073>077-083>087-290800-
SOUTH CENTRAL NEBRASKA

CITY           SKY/WX    TMP DP  RH WIND       PRES   REMARKS
GRAND ISLAND   CLOUDY    39  38  96 N12       30.06F WCI  32
AURORA         CLOUDY    40  38  95 N10       30.05F WCI  33
HASTINGS       CLOUDY    39  37  92 NE14      30.04F WCI  31
HEBRON         CLOUDY    40  37  86 NE14G21   29.98F WCI  33
HOLDREGE       CLOUDY    37  35  91 NE15G25   30.04F FOG     WCI  28
KEARNEY *      CLOUDY    39  34  81 NE17      30.05F WCI  30
YORK           CLOUDY    41  37  87 NE18      30.05F
$$

NEZ011>018-030>034-042>045-290800-
NORTHEAST NEBRASKA

CITY           SKY/WX    TMP DP  RH WIND       PRES   REMARKS
NORFOLK        CLOUDY    42  34  73 N8        30.12F
ALBION         CLOUDY    43  34  70 N7        30.09F
BLAIR          CLOUDY    42  38  85 N12       30.06F
FREMONT        CLOUDY    43  37  77 N5        30.09F
TEKAMAH        CLOUDY    43  38  82 N13       30.10F
WAYNE          CLOUDY    42  35  76 N9        30.13F
$$

NEZ050>053-065>068-078-088>093-290800-
SOUTHEAST NEBRASKA

CITY           SKY/WX    TMP DP  RH WIND       PRES   REMARKS
LINCOLN        CLOUDY    43  38  82 N17G24    30.04F
OMAHA EPPLEY   CLOUDY    44  37  76 N13       30.06F
BEATRICE       CLOUDY    42  39  91 NE16      29.99F
FALLS CITY     CLOUDY    44  41  89 N14G23    29.94F
NEBRASKA CITY  CLOUDY    42  38  88 N16       30.00S
PLATTSMOUTH    CLOUDY    42  37  80 N12G17    30.03F
$$

NEZ044-045-051>053-067-290800-
OMAHA AREA

CITY           SKY/WX    TMP DP  RH WIND       PRES   REMARKS
OMAHA EPPLEY   CLOUDY    44  37  76 N13       30.06F
BLAIR          CLOUDY    42  38  85 N12       30.06F
FREMONT        CLOUDY    43  37  77 N5        30.09F
MILLARD        CLOUDY    45  40  81 N6        30.06F
OFFUTT AFB     CLOUDY    43  37  79 N10G17    30.04F
PLATTSMOUTH    CLOUDY    42  37  80 N12G17    30.03F
WAHOO          CLOUDY    43  37  79 N15       30.06F
$$



USA.gov is the U.S. government's official web portal to all federal, state and local government web resources and services.